{"data":{"norad_id":55336,"epoch":"2026-05-25T04:48:03.551040Z","epoch_age_seconds":47935,"freshness":"FRESH","line1":"1 55336U 23013F   26145.20004110  .00000641  00000+0  32808-4 0  9992","line2":"2 55336  43.0027 216.6009 0001843 288.1134  71.9517 15.27578431183541","mean_motion":15.27578431,"eccentricity":0.0001843,"inclination_deg":43.0027,"raan_deg":216.6009,"arg_perigee_deg":288.1134,"mean_anomaly_deg":71.9517,"bstar":3.2808e-5,"rev_number":18354,"period_min":94.266845536522,"perigee_km":481.78927673075,"apogee_km":484.31831165749,"semimajor_km":6861.1907941941,"source":"CELESTRAK","updated_at":"2026-05-25T13:38:17.760643Z"}}